TimeCDT,TemperatureF,Dew PointF,Humidity,Sea Level PressureIn,VisibilityMPH,Wind Direction,Wind SpeedMPH,Gust SpeedMPH,PrecipitationIn,Events,Conditions,WindDirDegrees,DateUTC
12:55 AM,47.3,42.3,83,30.11,10.0,Calm,Calm,-,N/A,,Clear,0,2013-04-06 05:55:00
1:55 AM,47.1,42.3,83,30.11,10.0,Calm,Calm,-,N/A,,Clear,0,2013-04-06 06:55:00
2:55 AM,45.3,45.3,100,30.09,10.0,SE,3.5,-,N/A,,Clear,130,2013-04-06 07:55:00
3:55 AM,46.0,44.1,93,30.09,10.0,Calm,Calm,-,N/A,,Clear,0,2013-04-06 08:55:00
4:55 AM,43.3,43.3,100,30.09,10.0,Calm,Calm,-,N/A,,Clear,0,2013-04-06 09:55:00
5:55 AM,42.1,42.1,100,30.11,10.0,East,3.5,-,N/A,,Clear,90,2013-04-06 10:55:00
6:55 AM,43.3,43.3,100,30.12,10.0,ESE,4.6,-,N/A,,Clear,110,2013-04-06 11:55:00
7:55 AM,48.0,47.8,99,30.12,10.0,ESE,6.9,-,N/A,,Clear,110,2013-04-06 12:55:00
8:55 AM,54.9,40.8,59,30.12,10.0,SSE,9.2,-,N/A,,Clear,160,2013-04-06 13:55:00
9:55 AM,63.1,39.0,41,30.11,10.0,South,8.1,-,N/A,,Clear,170,2013-04-06 14:55:00
10:55 AM,68.0,36.1,31,30.11,10.0,SSW,15.0,-,N/A,,Clear,200,2013-04-06 15:55:00
11:28 AM,68.0,35.6,30,30.10,10.0,South,11.5,-,N/A,,Light Drizzle,190,2013-04-06 16:28:00
11:33 AM,69.8,37.4,31,30.10,10.0,South,11.5,18.4,N/A,,Clear,190,2013-04-06 16:33:00
11:34 AM,69.8,37.4,31,30.10,10.0,South,11.5,18.4,N/A,,Light Drizzle,190,2013-04-06 16:34:00
11:38 AM,69.8,35.6,28,30.10,10.0,SSW,13.8,19.6,N/A,,Clear,200,2013-04-06 16:38:00
11:55 AM,69.8,35.1,28,30.09,10.0,South,16.1,23.0,0.00,,Clear,180,2013-04-06 16:55:00
12:03 PM,69.8,35.6,28,30.09,10.0,South,9.2,-,N/A,,Light Drizzle,180,2013-04-06 17:03:00
12:13 PM,69.8,35.6,28,30.08,10.0,SSW,15.0,20.7,N/A,,Clear,200,2013-04-06 17:13:00
12:27 PM,71.6,35.6,27,30.08,10.0,South,10.4,20.7,N/A,Rain,Light Rain,180,2013-04-06 17:27:00
12:35 PM,71.6,35.6,27,30.08,10.0,SSW,11.5,23.0,N/A,,Clear,200,2013-04-06 17:35:00
12:54 PM,69.8,35.6,28,30.06,10.0,SSE,10.4,-,N/A,,Light Drizzle,160,2013-04-06 17:54:00
12:55 PM,70.3,35.6,28,30.06,10.0,SSE,12.7,-,0.00,,Light Drizzle,160,2013-04-06 17:55:00
1:09 PM,71.6,35.6,27,30.06,10.0,South,12.7,21.9,N/A,,Partly Cloudy,170,2013-04-06 18:09:00
1:16 PM,69.8,35.6,28,30.05,10.0,SSE,15.0,-,N/A,Rain,Light Rain,160,2013-04-06 18:16:00
1:26 PM,71.6,35.6,27,30.05,10.0,SSE,13.8,19.6,N/A,,Scattered Clouds,160,2013-04-06 18:26:00
1:55 PM,72.5,36.0,26,30.03,10.0,South,15.0,-,0.00,,Partly Cloudy,190,2013-04-06 18:55:00
2:55 PM,73.4,34.3,24,29.99,10.0,South,10.4,-,N/A,,Clear,190,2013-04-06 19:55:00
3:55 PM,72.5,33.6,24,29.96,10.0,South,13.8,-,N/A,,Clear,180,2013-04-06 20:55:00
4:55 PM,73.4,35.8,25,29.95,10.0,SW,16.1,-,N/A,,Partly Cloudy,220,2013-04-06 21:55:00
5:55 PM,73.2,34.2,24,29.93,10.0,South,11.5,-,N/A,,Clear,170,2013-04-06 22:55:00
6:55 PM,71.1,35.2,27,29.94,10.0,South,10.4,-,N/A,,Clear,190,2013-04-06 23:55:00
7:55 PM,67.5,36.3,32,29.93,10.0,South,5.8,-,N/A,,Clear,170,2013-04-07 00:55:00
8:55 PM,64.9,36.7,35,29.95,10.0,South,8.1,-,N/A,,Clear,170,2013-04-07 01:55:00
9:55 PM,63.9,36.5,36,29.96,10.0,SSE,8.1,-,N/A,,Clear,160,2013-04-07 02:55:00
10:55 PM,62.8,36.7,38,29.97,10.0,South,6.9,-,N/A,,Clear,180,2013-04-07 03:55:00
11:55 PM,61.9,36.1,38,29.97,10.0,South,8.1,-,N/A,,Partly Cloudy,190,2013-04-07 04:55:00